{"data":{"norad_id":58158,"epoch":"2026-05-25T05:05:03.711264Z","epoch_age_seconds":56670,"freshness":"FRESH","line1":"1 58158U 23166J   26145.21184851  .00000903  00000+0  40856-4 0  9991","line2":"2 58158  53.1610 224.2821 0001135  92.4674 267.6457 15.31698261144893","mean_motion":15.31698261,"eccentricity":0.0001135,"inclination_deg":53.161,"raan_deg":224.2821,"arg_perigee_deg":92.4674,"mean_anomaly_deg":267.6457,"bstar":4.0856e-5,"rev_number":14489,"period_min":94.013294698126,"perigee_km":469.96783097173,"apogee_km":471.52252722639,"semimajor_km":6848.8821790991,"source":"CELESTRAK","updated_at":"2026-05-25T13:38:18.537833Z"}}